Regional Weather Roundup
Issued by NWS

Home | Current Version | Previous Version | Graphics & Text | Print | Product List | Glossary On
Versions: 1 2 3 4 5 6 7 8 9 10 11 12 13 14 15 16 17 18 19 20 21 22 23 24 25 26 27 28 29 30 31 32 33 34 35 36 37 38 39 40 41 42 43 44 45 46 47 48 49 50
000
ASUS44 KMEG 280610
RWRTN
TENNESSEE HOURLY STATE WEATHER ROUNDUP
NATIONAL WEATHER SERVICE MEMPHIS TN
100 AM CDT WED JUN 28 2017

TNZ002-004-019-021-049-052-054-088>092-280700-
WEST TENNESSEE

CITY           SKY/WX    TMP DP  RH WIND       PRES   REMARKS
MEMPHIS INTL   PTCLDY    76  64  66 SE7       30.05F
NWS MEMPHIS      N/A     70 N/A N/A MISG        N/A
JACKSON        PTCLDY    64  63  96 CALM      30.08F
SOMERVILLE     CLEAR     66  64  94 CALM      30.05F
COVINGTON      CLEAR     68  64  88 CALM      30.06F
UNION CITY     CLEAR     68  59  73 CALM      30.07S
BOLIVAR        CLEAR     64  63  94 CALM      30.07F FOG
HUNTINGDON     CLEAR     63  61  94 CALM      30.08F
LEXINGTON      CLEAR     61  59  94 CALM      30.09S FOG
SELMER         CLEAR     64  61  88 E3        30.08F
SAVANNAH       PTCLDY    63  63 100 CALM      30.07F
$$

TNZ008-025-027-028-033-062-065-066-280700-
NORTH MIDDLE TENNESSEE

CITY           SKY/WX    TMP DP  RH WIND       PRES   REMARKS
NASHVILLE      CLEAR     65  58  78 CALM      30.11F
PORTLAND       CLEAR     59  57  94 CALM      30.11F
CLARKSVILLE    CLEAR     59  55  87 E3        30.11S
SMYRNA         CLEAR     61  59  93 S3        30.12F
COOKEVILLE     CLEAR     55  54  94 CALM      30.13S
GALLATIN       MOCLDY    59  57  94 CALM      30.14S
CROSSVILLE     CLEAR     54  52  93 CALM      30.17S
$$

TNZ061-075-076-078-094-096-097-280700-
SOUTH MIDDLE TENNESSEE

CITY           SKY/WX    TMP DP  RH WIND       PRES   REMARKS
FAYETTEVILLE   CLEAR     63  55  77 CALM      30.11F
TULLAHOMA      CLEAR     57  54  88 CALM      30.14S
WINCHESTER     CLEAR     55  55 100 CALM      30.13S
MCMINNVILLE    MOCLDY    57  57 100 CALM      30.13F VSB 1/2
COLUMBIA       PTCLDY    61  61 100 CALM      30.09F
SHELBYVILLE    CLEAR     61  57  88 SE5       30.12S
$$

TNZ017-018-042-046-047-280700-
NORTHEAST TENNESSEE

CITY           SKY/WX    TMP DP  RH WIND       PRES   REMARKS
TRI CITIES     CLEAR     53  51  93 CALM      30.17S
ELIZABETHTON   CLEAR     55  50  82 E3        30.19S
$$

TNZ012-013-036-069-073-074-280700-
CENTRAL EAST TENNESSEE

CITY           SKY/WX    TMP DP  RH WIND       PRES   REMARKS
KNOXVILLE      CLEAR     58  54  86 CALM      30.13S
OAK RIDGE      CLEAR     58  55  90 CALM      30.15F
DOWNTOWN KNOXV CLEAR     57  55  94 CALM      30.13F
GATLINBURG     CLEAR     55  50  82 CALM      30.15R
MORRISTOWN     PTCLDY    59  54  82 CALM      30.15R
JACKSBORO      CLEAR     54  54 100 CALM      30.19S
$$

TNZ083-085-099-280700-
SOUTHEAST TENNESSEE

CITY           SKY/WX    TMP DP  RH WIND       PRES   REMARKS
CHATTANOOGA    CLEAR     64  58  80 CALM      30.12S
DAYTON         PTCLDY    59  59 100 CALM      30.12S
$$

SKY/WX REPORTED AS FAIR MEANS FEW OR NO CLOUDS BELOW
12 THOUSAND FEET.




USA.gov is the U.S. government's official web portal to all federal, state and local government web resources and services.